Location: Unspecified
(50.7693°N, 0.0000°E)
Time: 02:54:14
(UTC+00:00)

Transit 2A - Pass Details

Date: 29 June 2019
Orbit: 594 x 965 km, 66.7° (Epoch: 16 July)

Event Time Altitude Azimuth Distance (km) Brightness Sun altitude
Rises 01:37:28 0° 272° (W) 3,643 9.3 -13.1°
Reaches altitude 10° 01:40:41 10° 287° (WNW) 2,676 8.7 -12.9°
Maximum altitude 01:45:31 23° 337° (NNW) 1,870 8.5 -12.6°
Drops below altitude 10° 01:50:09 10° 28° (NNE) 2,544 10.2 -12.3°
Sets 01:53:07 0° 44° (NE) 3,421 10.9 -12.1°
